Du Bois, PA

1:29 AM EDT on April 30, 2017 (GMT -0400)
Du Bois-Jefferson County

Weather History for KDUJ - September, 2014

Change the Weather History Date:

Tuesday, September 9, 2014

  Actual Average Record
Temperature  
Mean Temperature 63 °F 62 °F  
Max Temperature 71 °F 73 °F 90 °F (2015)
Min Temperature 55 °F 52 °F 38 °F (1986)
Degree Days  
Heating Degree Days 2 4  
Month to date heating degree days 12 27  
Since 1 July heating degree days 84 89  
Cooling Degree Days 0 1  
Month to date cooling degree days 31 16  
Year to date cooling degree days 406 347  
Growing Degree Days 12 (Base 50)    
Moisture  
Dew Point 57 °F    
Average Humidity 87    
Maximum Humidity 100    
Minimum Humidity 73    
Precipitation  
Precipitation 0.00 in 0.13 in 1.02 in (1990)
Month to date precipitation 0.44 1.15  
Sea Level Pressure  
Sea Level Pressure 30.16 in    
Wind  
Wind Speed 9 mph (SE)    
Max Wind Speed 15 mph    
Max Gust Speed 21 mph    
Visibility 10 miles    
Events      
T = Trace of Precipitation, MM = Missing Value Source: NWS Daily Summary

Daily Weather History Graph

Daily Weather History Graph

Search for Another Location

Airport or City:

Trip Planner

Search our weather history database for the weather conditions in past years. The results will help you decide how hot, cold, wet, or windy it might be!

Date:

Astronomy

Sep. 09, 2014 Rise Set
Actual Time 6:50 AM EDT 7:35 PM EDT
Civil Twilight 6:22 AM EDT 8:02 PM EDT
Nautical Twilight 5:49 AM EDT 8:35 PM EDT
Astronomical Twilight 5:14 AM EDT 9:09 PM EDT
Moon 7:52 PM EDT (9/9) 7:25 AM EDT (9/9)
Length of Visible Light 13h 40m
Length of Day
12h 44m
Waxing Gibbous, 99% of the Moon is Illuminated
Sep 9
Waxing Gibbous
Sep 15
Last Quarter
Sep 24
New
Oct 1
First Quarter
Oct 8
Full

Hourly Weather History & Observations

Time (EDT) Temp. Dew Point Humidity Pressure Visibility Wind Dir Wind Speed Gust Speed Precip Events Conditions
1:53 AM 57.0 °F 53.1 °F 87% 30.20 in 10.0 mi ESE 8.1 mph - N/A   Scattered Clouds
2:53 AM 55.9 °F 53.1 °F 90% 30.19 in 10.0 mi ESE 6.9 mph - N/A   Clear
3:53 AM 55.9 °F 53.1 °F 90% 30.19 in 10.0 mi ESE 8.1 mph - N/A   Scattered Clouds
4:53 AM 55.0 °F 53.1 °F 93% 30.18 in 10.0 mi East 6.9 mph - N/A   Mostly Cloudy
5:53 AM 57.0 °F 54.0 °F 89% 30.18 in 10.0 mi ESE 6.9 mph - N/A   Mostly Cloudy
6:53 AM 57.0 °F 54.0 °F 89% 30.19 in 10.0 mi ESE 8.1 mph - N/A   Overcast
7:53 AM 57.9 °F 55.0 °F 90% 30.19 in 10.0 mi ESE 9.2 mph - N/A   Overcast
8:24 AM 59.0 °F 55.9 °F 90% 30.21 in 10.0 mi ESE 8.1 mph - N/A   Overcast
8:53 AM 60.1 °F 55.9 °F 86% 30.20 in 10.0 mi SE 5.8 mph - N/A   Overcast
9:21 AM 60.1 °F 57.0 °F 90% 30.21 in 10.0 mi ESE 9.2 mph - N/A   Overcast
9:53 AM 61.0 °F 57.0 °F 87% 30.19 in 10.0 mi SE 8.1 mph - N/A   Overcast
10:53 AM 63.0 °F 57.9 °F 84% 30.19 in 10.0 mi SE 12.7 mph - N/A   Overcast
11:53 AM 64.0 °F 57.9 °F 80% 30.18 in 10.0 mi SSE 10.4 mph 20.7 mph N/A   Overcast
12:21 PM 66.9 °F 59.0 °F 76% 30.19 in 10.0 mi SE 8.1 mph - N/A   Overcast
12:53 PM 66.9 °F 60.1 °F 79% 30.17 in 10.0 mi SE 10.4 mph - N/A   Overcast
1:53 PM 68.0 °F 60.1 °F 76% 30.15 in 10.0 mi SSE 8.1 mph 19.6 mph N/A   Overcast
4:37 PM 68.0 °F 60.1 °F 76% 30.13 in 10.0 mi SE 11.5 mph - N/A   Overcast
5:53 PM 66.9 °F 60.1 °F 79% 30.11 in 10.0 mi SE 10.4 mph - N/A   Scattered Clouds
6:53 PM 64.9 °F 60.1 °F 84% 30.11 in 10.0 mi ESE 9.2 mph - N/A   Overcast
7:53 PM 63.0 °F 60.1 °F 90% 30.11 in 10.0 mi SE 9.2 mph - N/A   Partly Cloudy
8:53 PM 62.1 °F 60.1 °F 93% 30.12 in 10.0 mi SE 8.1 mph - N/A   Clear
9:53 PM 61.0 °F 60.1 °F 97% 30.11 in 10.0 mi SE 9.2 mph - N/A   Clear
10:21 PM 62.1 °F 60.1 °F 93% 30.12 in 10.0 mi SE 9.2 mph - N/A   Mostly Cloudy
10:53 PM 62.1 °F 60.1 °F 93% 30.11 in 10.0 mi SE 8.1 mph - N/A   Overcast
11:53 PM 62.1 °F 60.1 °F 93% 30.09 in 10.0 mi SE 6.9 mph - N/A   Overcast